Other Public Products
Issued by NWS Grand Forks, ND

Home | Current Version | Previous Version | Text Only | Print | Product List | Glossary Off
Versions: 1 2 3 4 5 6 7 8 9 10 11 12 13 14 15 16 17 18 19 20 21 22 23 24 25 26 27 28 29 30 31 32 33 34 35 36 37 38 39 40 41 42 43 44 45 46 47 48 49 50

000
FPUS83 KFGF 020331
OPUFGF
PRAIRIE TO PINES WEATHER ROUNDUP
NATIONAL WEATHER SERVICE EASTERN NORTH DAKOTA/GRAND FORKS ND
1000 PM CDT FRI AUG 01 2014

 **SATELLITE DATA USED TO AUGMENT SKY COVER AT AUTOMATED STATIONS**
 *****  WEATHER ACROSS EASTERN NORTH DAKOTA  *****

CITY           SKY/WX    TMP DP  RH WIND       PRES   REMARKS
GRAND FORKS    PTCLDY    67  61  81 CALM      30.05R
GRAND FORKS AF PTCLDY    67  64  88 S3        30.07R
GRAND CITY NWS   N/A     68 N/A N/A MISG        N/A
BUXTON           N/A     72  62  71 CALM        N/A
DEVILS LAKE    CLEAR     68  59  73 CALM      30.07R
FARGO          PTCLDY    68  60  75 NE5       30.05S
WAHPETON ARPT  PTCLDY    64  59  82 CALM      30.06S
$$

 *****  WEATHER ACROSS CENTRAL AND WESTERN NORTH DAKOTA  *****

CITY           SKY/WX    TMP DP  RH WIND       PRES   REMARKS
JAMESTOWN      PTCLDY    69  61  75 E7        30.07R
BISMARCK       MOCLDY    66  62  87 E8        30.05S
MINOT          CLEAR     67  61  81 NE3       30.07R
MINOT AFB      CLEAR     71  63  77 E2        30.06R
GARRISON         N/A     68  63  84 NE3       30.07R
WILLISTON      CLEAR     74  56  53 E7        30.06S
DICKINSON      CLEAR     66  59  78 NE7       30.08R
HETTINGER      CLEAR     71  59  65 NE16      30.07R
$$

 *****  OTHER OBSERVATIONS NORTHEAST NORTH DAKOTA  *****

CITY           SKY/WX    TMP DP  RH WIND       PRES   REMARKS
WALHALLA         N/A     68  66  94 SW3         N/A
LANGDON        FAIR      63  59  88 S8        30.09R
CAVALIER       FAIR      68  64  88 SW3       30.05S FOG
GRAFTON        FAIR      66  61  82 S6        30.06R
CANDO          FAIR      64  61  88 SE3       30.09R
FORT TOTTEN    NOT AVBL
ROLLA          FAIR      61  59  94 SW5       30.10S
RUGBY          FAIR      66  64  94 SE7       30.08R
 ***** THE ABOVE OBSERVATIONS ARE NON NWS ARE NOT QUALITY
        CONTROLLED AND MAY MIS-REPORT RAIN FOR SNOW...
$$

 *****  OTHER OBSERVATIONS SOUTHEAST NORTH DAKOTA *****

CITY           SKY/WX    TMP DP  RH WIND       PRES   REMARKS
COOPERSTOWN    NOT AVBL
VALLEY CITY    FAIR      68  59  73 SE7       30.09R
OAKES          NOT AVBL
GWINNER        CLEAR     70  63  78 E6        30.09R
SHEYENNE NWR     N/A     66  59  79 E3        29.95S
BUFFALO          N/A     64  58  81 E5          N/A
WYNDMERE       NOT AVBL
 ***** THE ABOVE OBSERVATIONS ARE NON NWS ARE NOT QUALITY
       CONTROLLED AND MAY MIS-REPORT RAIN FOR SNOW...
$$

  *****  WEATHER ACROSS NORTHERN MINNESOTA  *****

CITY           SKY/WX    TMP DP  RH WIND       PRES   REMARKS
FLAG ISLAND    CLEAR     70  57  64 CALM      30.05S
WARROAD        CLEAR     66  61  82 CALM      30.08R
ROSEAU         CLEAR     64  59  82 S3        30.07S
HALLOCK        CLEAR     68  63  83 S5        30.05R
THF RVR FALLS  CLEAR     66  59  77 CALM      30.08R
HALSTAD          N/A     65  59  82 CALM        N/A
FOSSTON        CLEAR     61  52  72 CALM      30.09R HAZE
BAUDETTE       CLEAR     61  54  77 CALM      30.09R
WASKISH        CLEAR     57  54  88 CALM      30.09R
CROOKSTON      CLEAR     66  63  88 CALM      30.08R
$$
  *****  WEATHER ACROSS CENTRAL AND WEST MINNESOTA  *****

CITY           SKY/WX    TMP DP  RH WIND       PRES   REMARKS
BEMIDJI        CLEAR     62  57  83 CALM      30.09R
PARK RAPIDS    CLEAR     70  56  61 N3        30.09R
WADENA         CLEAR     61  57  88 CALM      30.08R
DETROIT LAKES  CLEAR     68  63  83 CALM      30.10R
MOORHEAD       PTCLDY    70  66  88 E3        30.07R
FERGUS FALLS   PTCLDY    70  55  60 NE3       30.07R
ELBOW LAKE     FAIR      70  62  74 NE3       30.07R
MORRIS MN      PTCLDY    66  63  88 CALM      30.07R
STAPLES        CLEAR     64  59  82 CALM      30.08R
WHEATON        PTCLDY    64  61  88 CALM      30.08R
$$
  *****  WEATHER ELSEWHERE ACROSS MINNESOTA  *****

CITY           SKY/WX    TMP DP  RH WIND       PRES   REMARKS
DULUTH         CLEAR     59  51  75 E6        30.10R
INTRNTL FALLS  CLEAR     54  53  97 CALM      30.07R
ELY            CLEAR     55  52  88 CALM      30.10R
CLOQUET        CLEAR     57  54  88 CALM      30.10S
BRAINERD       CLEAR     65  62  90 CALM      30.08R
HIBBING        CLEAR     61  58  90 CALM      30.09R
ALEXANDRIA     PTCLDY    69  62  78 CALM      30.09S
SAINT CLOUD    CLEAR     68  61  78 CALM      30.07R
MINNEAPOLIS    PTCLDY    72  62  71 SE5       30.07R
$$

  *****  WEATHER ACROSS SOUTH DAKOTA  *****

CITY           SKY/WX    TMP DP  RH WIND       PRES   REMARKS
SIOUX FALLS    PTCLDY    69  58  67 CALM      30.09R
BROOKINGS      NOT AVBL
WATERTOWN      PTCLDY    72  60  66 SE5       30.08R
HURON          CLEAR     73  56  54 SE5       30.06R
SISSETON         N/A     67  65  93 CALM      30.05R
ABERDEEN       PTCLDY    67  59  75 E6        30.06R
MITCHELL       CLEAR     71  59  65 SE9       30.08R
PIERRE         LGT RAIN  69  60  73 SE29G40   29.94F
MOBRIDGE         N/A     75  58  55 MISG      30.00R
RAPID CITY     MOCLDY    75  48  38 SW5       30.06S
$$

  *****  SOME WEATHER IN NEARBY STATES *****

CITY           SKY/WX    TMP DP  RH WIND       PRES   REMARKS
GLASGOW MT     PTCLDY    73  55  53 NE9       30.07R
GREAT FALLS MT CLOUDY    80  42  25 NE10      30.11S
CHEYENNE WY    CLEAR     67  45  45 S9        30.30R
SCOTTSBLUFF NE PTCLDY    74  53  48 VRB7      30.15R
OMAHA NE       CLEAR     71  63  75 CALM      30.09R
DES MOINES IA  CLEAR     75  60  59 SE5       30.09R
DAVENPORT IA   PTCLDY    66  60  81 S7        30.10R
CHICAGO IL     CLOUDY    70  54  56 N12       30.13R
EAU CLAIRE WI  CLEAR     67  64  90 CALM      30.09R
LA CROSSE WI   PTCLDY    72  60  66 SE9       30.09R
$$

  *****  SOME NATIONAL WEATHER *****

CITY           SKY/WX    TMP DP  RH WIND       PRES   REMARKS
LA GUARDIA NY  CLOUDY    75  64  68 S5        30.20S
RALEIGH NC     DRIZZLE   64  63  94 N8        30.11F
ATLANTA GA     CLOUDY    72  66  81 E10       30.08R
NEW ORLEANS LA PTCLDY    79  68  69 SE5       29.97R
OKLAHOMA CITY  PTCLDY    72  65  78 SE6       30.07R
ALBUQUERQUE NM MOCLDY    74  56  53 E14       30.21R
SALT LAKE CITY PTCLDY    81  44  27 W6        30.07R
LOS ANGELES CA MOCLDY    68  63  84 W12       29.87S
BOISE ID       CLOUDY    87  46  24 VRB6      29.97F
SEATTLE WA     PTCLDY    78  54  43 NW7       29.97S
$$

*** WEATHER ACROSS MANITOBA...SASKATCHEWAN AND ONTARIO ***
                ***ONTARIO***

CITY           SKY/WX    TMP DP  RH WIND       PRES   REMARKS
GERALDTON      PTCLDY    57  55  94 CALM      30.08R
THUNDER BAY    CLEAR     57  55  94 VRB2      30.10R
SIOUX LOOKOUT  PTCLDY    55  54  94 S2        30.06R
TORONTO        PTCLDY    66  59  77 S3        30.13R
BIG TROUT LK   CLEAR     64  52  63 SE8       29.99S
PICKLE LAKE    NOT AVBL
DRYDEN           N/A     66  55  68 S3        30.07
KENORA         MOCLDY    70  50  49 SW5       30.08R
$$
                *** MANITOBA***

CITY           SKY/WX    TMP DP  RH WIND       PRES   REMARKS
BRANDON        MOCLDY    68  61  77 SW5       30.06R
DAUPHIN        LGT RAIN  66  63  88 W12       30.07R
ISLAND LAKE    LGT RAIN  64  61  88 CALM      29.98S
PILOT MOUND      N/A    N/A N/A N/A S6          N/A
THE PAS        PTCLDY    66  59  77 N7        30.08R
THOMPSON       MOCLDY    59  59 100 N5        30.05R
WINNIPEG       PTCLDY    75  61  60 SW6       30.02F
LYNN LAKE      CLEAR     59  48  67 NW7       30.12R
CHURCHILL      MOCLDY    54  50  87 NE12G17   30.07R
GILLAM         CLOUDY    61  61 100 N7        29.98R FOG
$$
                ***SASKATCHEWAN***

CITY           SKY/WX    TMP DP  RH WIND       PRES   REMARKS
ESTEVAN        CLOUDY    66  61  82 E6        30.08R
KINDERSLEY     PTCLDY    66  61  82 N9        30.17
LLOYDMINSTER   PTCLDY    61  57  88 E5        30.22R SMOKE
PRINCE ALBERT  MOCLDY    64  59  82 N5        30.14R
REGINA         TSTM      61  61 100 S9        30.10F



USA.gov is the U.S. government's official web portal to all federal, state and local government web resources and services.